Quillayute, WA
on Friday, January 18, 2013

Friday
Previous Day Next Day
Daily Summary
 ActualAverageRecord
Temperature
Mean Temperature °F 42°F  
Max Temperature 52°F 47°F 65°F (1981)
Min Temperature 24°F 36°F 16°F (1984)
Degree Days
Heating Degree Days 27 23  
Month to date heating degree days 426  
Since 1 July heating degree days 2904  
Cooling Degree Days 0 0  
Month to date cooling degree days 0  
Year to date cooling degree days 0  
Moisture
Dew Point 28°F   
Average Humidity 90    
Maximum Humidity 100    
Minimum Humidity 43    
Precipitation
Precipitation 0.00 in 0.50 in 7.16 in (1968)
Month to date precipitation 8.76  
Year to date precipitation 8.76  
Wind
Wind Speed 1 mph   
Max Wind Speed 6 mph   
Max Gust Speed 7 mph   
Visibility 3 miles   
Events Fog   

Key: T is trace of precipitation, MM is missing value
Source: NWS Daily Summary
Time(PST)TemperatureDew PointHumidity Pressure Visibility Wind DirectionWind SpeedGust SpeedPrecipitationEvents Conditions
12:03 AM 28.4°F 28.4°F 100% 30.28 in 0.8 miles Calm Calm - N/A   Clear
12:19 AM 26.6°F 26.6°F 100% 30.28 in 1.5 miles Calm Calm - N/A   Clear
12:26 AM 28.4°F 26.6°F 93% 30.28 in 3.0 miles Calm Calm - N/A   Clear
12:53 AM 28.0°F 27.0°F 96% 30.28 in 5.0 miles Calm Calm - N/A   Clear
1:53 AM 28.0°F 26.1°F 92% 30.28 in 5.0 miles Calm Calm - N/A   Clear
2:53 AM 27.0°F 25.0°F 92% 30.28 in 5.0 miles Calm Calm - N/A   Clear
3:53 AM 25.0°F 21.9°F 88% 30.27 in 1.5 miles Calm Calm - N/A   Clear
4:00 AM 24.8°F 23.0°F 93% 30.26 in 1.0 miles Calm Calm - N/A   Clear
4:11 AM 26.6°F 24.8°F 93% 30.26 in 2.0 miles North 3.5 mph - N/A   Clear
4:19 AM 24.8°F 21.2°F 86% 30.26 in 4.0 miles Calm Calm - N/A   Clear
4:53 AM 27.0°F 26.1°F 96% 30.27 in 6.0 miles NNE 3.5 mph - N/A   Clear
5:53 AM 25.0°F 23.0°F 92% 30.25 in 6.0 miles NE 3.5 mph - N/A   Clear
6:53 AM 26.1°F 24.1°F 92% 30.25 in 6.0 miles Calm Calm - N/A   Clear
7:26 AM 24.8°F 21.2°F 86% 30.24 in 2.0 miles Calm Calm - N/A   Scattered Clouds
7:28 AM 24.8°F 21.2°F 86% 30.24 in 0.8 miles Calm Calm - N/A   Mist
7:38 AM 26.6°F 24.8°F 93% 30.25 in 0.2 miles NE 3.5 mph - N/A Fog Light Freezing Fog
7:53 AM 27.0°F 27.0°F 100% 30.26 in 0.2 miles North 4.6 mph - N/A Fog Light Freezing Fog
8:01 AM 26.6°F 26.6°F 100% 30.25 in 1.0 miles Calm Calm - N/A   Mist
8:05 AM 26.6°F 26.6°F 100% 30.25 in 2.0 miles Calm Calm - N/A   Mostly Cloudy
8:08 AM 26.6°F 26.6°F 100% 30.25 in 3.0 miles Calm Calm - N/A   Scattered Clouds
8:29 AM 26.6°F 26.6°F 100% 30.26 in 0.8 miles NE 4.6 mph - N/A   Mist
8:38 AM 28.4°F 28.4°F 100% 30.26 in 0.2 miles NE 3.5 mph - N/A Fog Light Freezing Fog
8:50 AM 28.4°F 28.4°F 100% 30.27 in 0.8 miles Calm Calm - N/A   Mostly Cloudy
8:53 AM 28.9°F 28.9°F 100% 30.27 in 0.8 miles Calm Calm - N/A   Mist
9:02 AM 28.4°F 28.4°F 100% 30.27 in 1.0 miles Calm Calm - N/A   Mist
9:11 AM 30.2°F 28.4°F 93% 30.27 in 0.8 miles Calm Calm - N/A   Clear
9:29 AM 30.2°F 30.2°F 100% 30.27 in 1.5 miles Calm Calm - N/A   Clear
9:35 AM 30.2°F 30.2°F 100% 30.27 in 3.0 miles Calm Calm - N/A   Clear
9:53 AM 32.0°F 30.0°F 92% 30.28 in 5.0 miles Calm Calm - N/A   Clear
10:53 AM 37.9°F 34.0°F 86% 30.28 in 5.0 miles Calm Calm - N/A   Clear
11:53 AM 43.0°F 35.1°F 74% 30.27 in 5.0 miles North 4.6 mph - N/A   Haze
12:53 PM 46.0°F 35.1°F 66% 30.27 in 6.0 miles North 3.5 mph - N/A   Haze
1:53 PM 48.9°F 34.0°F 56% 30.25 in 6.0 miles Calm Calm - N/A   Haze
2:53 PM 51.1°F 33.1°F 50% 30.25 in 6.0 miles Calm Calm - N/A   Haze
3:53 PM 52.0°F 36.0°F 54% 30.25 in 6.0 miles Calm Calm - N/A   Haze
4:53 PM 41.0°F 37.0°F 86% 30.25 in 5.0 miles Calm Calm - N/A   Clear
5:53 PM 36.0°F 34.0°F 93% 30.25 in 5.0 miles Calm Calm - N/A   Clear
6:53 PM 32.0°F 30.9°F 96% 30.25 in 2.5 miles Calm Calm - N/A   Clear
7:12 PM 33.8°F 32.0°F 93% 30.24 in 3.0 miles Calm Calm - N/A   Clear
7:53 PM 32.0°F 30.9°F 96% 30.26 in 4.0 miles Calm Calm - N/A   Clear
8:53 PM 30.0°F 28.9°F 96% 30.27 in 2.5 miles Calm Calm - N/A   Clear
9:01 PM 30.2°F 30.2°F 100% 30.26 in 4.0 miles Calm Calm - N/A   Clear
9:22 PM 30.2°F 28.4°F 93% 30.26 in 2.0 miles Calm Calm - N/A   Clear
9:32 PM 30.2°F 28.4°F 93% 30.26 in 4.0 miles Calm Calm - N/A   Clear
9:53 PM 30.0°F 28.9°F 96% 30.28 in 2.5 miles Calm Calm - N/A   Clear
10:08 PM 30.2°F 28.4°F 93% 30.27 in 5.0 miles Calm Calm - N/A   Clear
10:53 PM 28.9°F 28.0°F 96% 30.28 in 4.0 miles Calm Calm - N/A   Clear
11:27 PM 28.4°F 28.4°F 100% 30.27 in 1.8 miles Calm Calm - N/A   Clear
11:42 PM 30.2°F 28.4°F 93% 30.27 in 2.5 miles Calm Calm - N/A   Clear
11:53 PM 28.0°F 27.0°F 96% 30.28 in 1.0 miles Calm Calm - N/A   Clear
Moon Phase
Jan. 18 Jan. 18 Jan. 26 Feb. 03 Feb. 10
Sunrise:08:00 AM (PST) Moon Rise:11:04 AM (PST)1/18
Sunset:04:57 PM (PST) Moon Set:12:29 AM (PST)1/18

Copyright © 2014 The Weather Underground, Inc.